User: anonymous   Login
Location: Unspecified
(0.0000°N, 0.0000°E)
Time: 03:25:17
(UTC+00:00)
Language:

STARLINK-4056 - Orbit

View from above orbital plane
View from above orbital plane
View from above satellite
View from above satellite

Ground track
Ground track

The orbit is defined by the following mean orbital elements,

1 53242U          26145.34340705 +.00000000 +00000-0 +32666-4 0 00000
2 53242  53.2130 214.9989 0000928  61.4040 298.7046 15.08833399    03
Epoch (UTC): 25 May 2026 08:14:30
Eccentricity: 0.0000928
inclination: 53.2130°
perigee height: 539 km
apogee height: 540 km
right ascension of ascending node: 214.9989°
argument of perigee: 61.4040°
revolutions per day: 15.08833399
mean anomaly at epoch: 298.7046°

The dashed part of the orbit path shows where the satellite is in the earth's shadow,  

DLR